www.pogodaiklimat.ru

Погода и климат >> Архив погоды >> Великобритания >> London


АРХИВ ПОГОДЫ в London

Время (UTC), дата Ветер
(напр.,м/с)
 
Видим.   Явления Облачность Т
(С)
Тd
(С)
f
(%)
Тe
(С)
Тes
(С)
Комфортность P
(гПа)
Po
(гПа)
Тmin
(С)
Tmax
(С)
R
(мм)
S
(см)
19 14.02 ЮВ 5 11 км н/о +10.0 +6.0 76 +7 +7 тепло 1025.4 1022.4
20 14.02 ЮВ 3 11 км н/о +9.8 +6.0 77 +8 +8 тепло 1025.8 1022.7
21 14.02 ЮВ 4 10 км н/о +9.7 +6.6 81 +7 +7 тепло 1026.1 1023.0
22 14.02 ЮВ 3 9000 м дым н/о +9.7 +7.1 84 +7 +7 тепло 1026.4 1023.3
23 14.02 ЮВ 3 9000 м дым н/о +9.7 +7.3 85 +7 +7 тепло 1026.6 1023.6
00 15.02 ЮВ 3 8000 м дым н/о +9.5 +7.7 89 +7 +7 тепло 1027.0 1023.9
01 15.02 ЮВ 2 6000 м дым н/о +9.2 +7.8 91 +7 +7 тепло 1027.1 1024.0
02 15.02 ЮВ 3 6000 м дым н/о +9.3 +8.2 93 +7 +7 тепло 1027.2 1024.1
03 15.02 ЮВ 2 5000 м дым н/о +8.7 +7.4 92 +7 +7 тепло 1027.4 1024.3
04 15.02 ЮВ 2 4400 м дымка н/о +7.9 +7.3 96 +6 +6 тепло 1027.5 1024.4
05 15.02 В 1 3800 м дымка н/о +7.8 +7.3 97 +8 +8 тепло 1027.3 1024.2
06 15.02 СВ 1 4000 м дымка н/о +7.9 +7.5 97 +7 +7 тепло 1027.3 1024.2 +7.4
07 15.02 В 2 3300 м в посл. час туман н/о +6.9 +6.7 99 +4 +4 тепло 1027.3 1024.2
08 15.02 В 2 4900 м дымка н/о +7.7 +7.5 99 +6 +6 тепло 1027.7 1024.6
09 15.02 ЮВ 3 6000 м дымка н/о +8.8 +8.3 97 +6 +6 тепло 1028.1 1025.0
10 15.02 ЮВ 4 7000 м дым н/о +9.9 +8.9 93 +7 +7 тепло 1027.9 1024.8
11 15.02 Ю 5 9000 м дым н/о +10.7 +8.6 87 +8 +8 тепло 1027.5 1024.5
12 15.02 ЮВ 5 10 км н/о +11.5 +9.0 85 +9 +9 тепло 1027.1 1024.0
13 15.02 Ю 6 11 км н/о +11.2 +8.9 86 +8 +8 тепло 1026.8 1023.7
14 15.02 Ю 6 5000 м слаб. морось н/о +9.8 +8.9 94 +6 +6 тепло 1026.6 1023.5
15 15.02 Ю 4 14 км слаб. дождь н/о +9.8 +8.8 93 +7 +7 тепло 1027.0 1023.9
16 15.02 Ю 5 30 км ливневой дождь н/о +9.4 +8.1 92 +6 +6 тепло 1027.1 1024.0
17 15.02 ЮЗ 5 35 км слаб. дождь н/о +8.9 +7.8 93 +5 +5 тепло 1027.7 1024.6
18 15.02 ЮЗ 5 35 км в посл. час дождь н/о +8.6 +7.7 94 +5 +5 по сезону 1028.4 1025.3 +11.8 1
19 15.02 Ю 5 18 км н/о +8.1 +7.2 94 +4 +4 тепло 1028.8 1025.6
20 15.02 Ю 5 18 км н/о +8.0 +7.0 93 +4 +4 тепло 1028.9 1025.8
21 15.02 ЮЗ 6 22 км н/о +8.2 +6.8 91 +4 +4 по сезону 1029.2 1026.1
22 15.02 ЮЗ 5 16 км н/о +7.7 +6.7 93 +4 +4 тепло 1029.6 1026.5
23 15.02 ЮЗ 4 15 км н/о +7.7 +6.7 93 +4 +4 тепло 1029.6 1026.5
00 16.02 ЮЗ 4 12 км н/о +7.1 +6.3 95 +4 +4 по сезону 1030.0 1026.9 0.2
01 16.02 ЮЗ 4 14 км н/о +7.0 +6.4 96 +3 +3 тепло 1029.8 1026.7
02 16.02 ЮЗ 3 11 км н/о +6.3 +5.8 97 +3 +3 тепло 1030.0 1026.8
03 16.02 ЮЗ 4 11 км н/о +6.2 +5.8 97 +2 +2 по сезону 1030.2 1027.0
04 16.02 ЮЗ 5 12 км н/о +6.8 +6.5 98 +3 +3 тепло 1030.2 1027.0
05 16.02 ЮЗ 3 10 км н/о +6.1 +5.7 97 +3 +3 тепло 1030.1 1027.0
06 16.02 ЮЗ 3 7000 м дымка н/о +5.7 +5.4 98 +2 +2 по сезону 1030.1 1027.0 +4.8 0.2
07 16.02 ЮЗ 3 9000 м дымка н/о +6.4 +6.2 99 +3 +3 тепло 1030.1 1027.0
08 16.02 ЮЗ 3 11 км н/о +6.9 +6.3 96 +4 +4 тепло 1030.5 1027.4
09 16.02 З 3 11 км н/о +7.4 +6.6 95 +4 +4 по сезону 1030.7 1027.5
10 16.02 З 3 13 км н/о +8.5 +7.2 92 +6 +6 тепло 1030.7 1027.6
11 16.02 З 3 13 км н/о +9.0 +7.0 87 +6 +6 тепло 1030.8 1027.7
12 16.02 З 4 21 км н/о +9.6 +7.1 84 +7 +7 по сезону 1030.4 1027.3
13 16.02 З 3 19 км н/о +10.1 +6.8 80 +8 +8 тепло 1029.7 1026.6
14 16.02 З 5 22 км н/о +11.6 +6.6 71 +9 +9 тепло 1028.8 1025.8
15 16.02 З 6 45 км н/о +11.3 +5.5 67 +8 +8 тепло 1028.5 1025.5
16 16.02 З 5 35 км н/о +11.2 +5.0 66 +9 +9 тепло 1028.4 1025.3
17 16.02 З 6 40 км н/о +10.3 +4.9 69 +7 +7 тепло 1028.6 1025.5
18 16.02 З 3 35 км н/о +9.8 +4.3 69 +8 +8 тепло 1028.7 1025.6 +12.3
19 16.02 ЮЗ 4 40 км н/о +9.8 +4.6 70 +7 +7 тепло 1028.8 1025.7
20 16.02 З 3 45 км н/о +9.4 +4.8 73 +7 +7 тепло 1028.8 1025.7
21 16.02 З 2 30 км слаб. ливневой дождь н/о +9.0 +5.3 78 +7 +7 тепло 1029.1 1026.0
22 16.02 ЮЗ 3 19 км слаб. дождь н/о +8.7 +5.9 83 +6 +6 тепло 1028.9 1025.8
23 16.02 ЮЗ 4 24 км в посл. час дождь н/о +8.4 +6.1 85 +5 +5 тепло 1028.8 1025.7
00 17.02 З 4 30 км слаб. ливневой дождь н/о +8.3 +6.3 87 +5 +5 тепло 1028.5 1025.4 0.2
01 17.02 З 4 21 км в посл. час дождь н/о +8.2 +6.4 88 +5 +5 тепло 1028.5 1025.4
02 17.02 З 4 21 км н/о +7.9 +6.4 90 +4 +4 тепло 1028.2 1025.1
03 17.02 З 3 22 км н/о +8.2 +6.4 88 +5 +5 тепло 1028.0 1024.9
04 17.02 З 3 15 км н/о +7.9 +6.2 89 +5 +5 тепло 1027.9 1024.8
05 17.02 З 3 16 км н/о +7.5 +6.2 91 +5 +5 тепло 1028.1 1025.0
06 17.02 З 3 13 км н/о +7.5 +6.2 91 +5 +5 тепло 1027.9 1024.7 +7.3 0.2
07 17.02 З 3 13 км н/о +7.2 +5.9 91 +4 +4 тепло 1027.9 1024.8
08 17.02 З 3 10 км н/о +7.3 +6.1 92 +4 +4 тепло 1028.2 1025.0
09 17.02 З 3 14 км н/о +8.0 +6.4 90 +5 +5 по сезону 1028.4 1025.3
10 17.02 З 3 15 км н/о +9.6 +6.7 82 +8 +8 тепло 1028.7 1025.6
11 17.02 З 3 16 км н/о +10.5 +7.2 80 +8 +8 тепло 1028.7 1025.6
12 17.02 З 2 21 км н/о +11.4 +7.1 75 +10 +10 тепло 1028.6 1025.5
13 17.02 З 2 27 км н/о +12.3 +7.0 70 +12 +12 тепло 1028.2 1025.1
14 17.02 СЗ 1 40 км н/о +12.8 +5.7 62 +13 +13 тепло 1027.7 1024.6
15 17.02 ЮЗ 2 26 км н/о +13.1 +6.0 62 +13 +13 тепло 1027.3 1024.2
16 17.02 ЮЗ 3 35 км н/о +11.4 +5.1 65 +10 +10 тепло 1027.0 1023.9
17 17.02 Ю 2 26 км н/о +10.6 +5.2 69 +10 +10 тепло 1026.8 1023.8
18 17.02 ЮЗ 2 30 км н/о +9.7 +5.2 74 +9 +9 тепло 1027.1 1024.0 +13.5
19 17.02 Ю 3 27 км н/о +9.7 +6.0 78 +8 +8 тепло 1027.4 1024.3
20 17.02 ЮЗ 4 23 км н/о +8.7 +5.8 82 +6 +6 тепло 1027.3 1024.2
21 17.02 Ю 4 14 км н/о +7.8 +5.7 87 +5 +5 по сезону 1027.4 1024.3
22 17.02 Ю 3 9000 м дым н/о +6.8 +5.5 91 +4 +4 тепло 1027.5 1024.3
23 17.02 Ю 3 8000 м дымка н/о +6.4 +5.7 95 +3 +3 тепло 1027.4 1024.3
00 18.02 ЮЗ 4 6000 м дымка н/о +6.0 +5.5 97 +2 +2 по сезону 1027.3 1024.2
01 18.02 Ю 3 11 км н/о +6.2 +5.3 94 +3 +3 тепло 1027.1 1024.0
02 18.02 Ю 3 20 км н/о +6.3 +4.8 90 +3 +3 тепло 1026.9 1023.8
03 18.02 Ю 3 5000 м дымка н/о +6.0 +5.3 95 +3 +3 по сезону 1026.6 1023.5
04 18.02 Ю 4 9000 м дымка н/о +5.6 +5.0 96 +2 +2 тепло 1026.2 1023.0
05 18.02 ЮЗ 3 5000 м дымка н/о +5.7 +5.3 97 +2 +2 тепло 1026.1 1022.9
06 18.02 Ю 3 3600 м дымка н/о +5.9 +5.7 99 +2 +2 по сезону 1025.7 1022.6 +5.6
07 18.02 Ю 3 4600 м дымка н/о +6.1 +5.6 97 +3 +3 тепло 1025.6 1022.5
08 18.02 ЮЗ 3 4600 м дымка н/о +6.3 +5.7 96 +3 +3 тепло 1026.0 1022.8
09 18.02 ЮЗ 3 4500 м дымка н/о +6.6 +5.9 95 +3 +3 по сезону 1026.1 1022.9
10 18.02 Ю 4 4300 м дым н/о +7.0 +5.9 93 +4 +4 тепло 1026.1 1023.0
11 18.02 Ю 3 5000 м дым н/о +7.6 +6.2 91 +5 +5 тепло 1026.0 1022.9
12 18.02 Ю 3 5000 м дым н/о +8.3 +6.4 88 +6 +6 по сезону 1025.9 1022.8
13 18.02 ЮЗ 4 7000 м дым н/о +9.4 +6.9 84 +6 +6 тепло 1025.3 1022.2
14 18.02 Ю 2 7000 м дым н/о +10.6 +6.5 76 +10 +10 тепло 1024.6 1021.5
15 18.02 Ю 2 10 км дым н/о +12.0 +6.8 70 +11 +11 тепло 1023.9 1020.8
16 18.02 ЮЗ 2 12 км н/о +12.7 +6.7 67 +12 +12 тепло 1023.6 1020.5
17 18.02 ЮЗ 5 35 км н/о +11.5 +4.5 62 +9 +9 тепло 1023.3 1020.2
18 18.02 Ю 4 24 км н/о +10.2 +4.3 67 +8 +8 тепло 1023.7 1020.6 +12.9
19 18.02 Ю 4 35 км н/о +8.9 +4.0 71 +6 +6 тепло 1024.0 1020.9
20 18.02 Ю 4 17 км н/о +7.6 +4.5 81 +4 +4 тепло 1024.0 1020.8
21 18.02 Ю 3 13 км н/о +6.7 +4.5 86 +4 +4 по сезону 1023.9 1020.8
22 18.02 ЮЗ 3 8000 м дым н/о +5.3 +3.7 89 +2 +2 тепло 1024.1 1021.0
23 18.02 З 2 11 км н/о +5.4 +3.9 90 +3 +3 тепло 1024.6 1021.5
00 19.02 ЮЗ 3 8000 м дым н/о +4.8 +3.9 94 +1 +1 по сезону 1024.1 1021.0
01 19.02 ЮЗ 2 4700 м дымка н/о +3.6 +2.9 95 0 0 тепло 1023.8 1020.6
02 19.02 ЮЗ 3 4600 м дымка н/о +4.1 +3.5 96 +1 +1 тепло 1022.8 1019.7
03 19.02 З 2 3400 м дымка н/о +3.2 +2.4 94 +1 +1 по сезону 1023.0 1019.9
04 19.02 ЮЗ 3 2900 м дымка н/о +4.7 +4.5 99 +1 +1 тепло 1022.7 1019.6
05 19.02 ЮЗ 3 3000 м дымка н/о +5.1 +4.9 99 +2 +2 тепло 1022.1 1019.0
06 19.02 Ю 1 3700 м дымка н/о +5.6 +5.2 97 +4 +4 по сезону 1022.3 1019.2 +3.1
07 19.02 ЮЗ 2 4800 м дымка н/о +6.1 +5.3 95 +4 +4 тепло 1022.7 1019.6
08 19.02 ЮЗ 3 6000 м дымка н/о +6.9 +6.0 94 +4 +4 тепло 1022.9 1019.8
09 19.02 ЮЗ 4 10 км дым н/о +7.9 +6.3 90 +4 +4 по сезону 1022.9 1019.8
10 19.02 З 5 22 км н/о +8.9 +6.3 84 +6 +6 тепло 1023.6 1020.5
11 19.02 З 5 26 км н/о +9.8 +6.6 80 +7 +7 тепло 1023.7 1020.6
12 19.02 З 6 40 км н/о +10.5 +6.4 76 +7 +7 по сезону 1023.2 1020.1
13 19.02 З 5 30 км н/о +11.1 +5.6 69 +9 +9 тепло 1022.6 1019.5
14 19.02 З 4 35 км н/о +12.6 +7.3 70 +11 +11 тепло 1022.2 1019.2
15 19.02 З 4 50 км н/о +11.6 +6.5 71 +9 +9 тепло 1021.9 1018.8
16 19.02 З 5 30 км н/о +11.3 +7.2 76 +9 +9 тепло 1021.8 1018.7
17 19.02 З 5 30 км н/о +11.0 +7.5 79 +8 +8 тепло 1021.5 1018.5
18 19.02 З 4 40 км н/о +10.8 +7.7 81 +8 +8 тепло 1021.8 1018.7 +12.9
19 19.02 З 4 30 км н/о +10.7 +7.7 82 +8 +8 тепло 1021.8 1018.7
20 19.02 ЮЗ 3 26 км н/о +10.3 +8.3 87 +8 +8 тепло 1021.8 1018.7
21 19.02 ЮЗ 4 20 км н/о +10.1 +8.5 90 +7 +7 тепло 1021.9 1018.8
22 19.02 ЮЗ 4 7000 м в посл. час морось н/о +9.9 +9.0 94 +7 +7 тепло 1021.8 1018.7
23 19.02 ЮЗ 4 25 км н/о +10.1 +8.8 92 +7 +7 тепло 1021.5 1018.4
00 20.02 З 5 27 км н/о +10.1 +8.8 92 +7 +7 тепло 1021.7 1018.6
01 20.02 З 5 8000 м дымка н/о +9.9 +9.2 95 +7 +7 тепло 1021.1 1018.1
02 20.02 З 4 14 км н/о +9.9 +9.1 95 +7 +7 тепло 1020.4 1017.3
03 20.02 З 5 10 км н/о +9.8 +8.9 94 +7 +7 тепло 1019.8 1016.7
04 20.02 З 4 11 км н/о +9.6 +8.7 94 +7 +7 тепло 1019.5 1016.4
05 20.02 З 4 7000 м дымка н/о +9.9 +9.1 95 +7 +7 тепло 1019.2 1016.1
06 20.02 ЮЗ 4 5000 м дымка н/о +10.0 +9.5 97 +7 +7 тепло 1019.0 1015.9 +9.6
07 20.02 З 3 7000 м дымка н/о +10.5 +9.8 95 +9 +9 тепло 1019.0 1016.0
08 20.02 З 5 7000 м дымка н/о +11.2 +10.3 94 +8 +8 тепло 1019.1 1016.1
09 20.02 З 5 10 км дым н/о +11.8 +10.5 92 +9 +9 тепло 1019.6 1016.5
10 20.02 ЮЗ 5 18 км н/о +12.1 +10.2 88 +10 +10 тепло 1019.3 1016.3
11 20.02 ЮЗ 5 15 км н/о +14.3 +11.0 81 +13 +13 тепло 1018.8 1015.8
12 20.02 З 6 30 км н/о +14.4 +10.5 77 +13 +13 тепло 1018.5 1015.5
13 20.02 З 6 35 км н/о +16.5 +11.0 70 +15 +15 тепло 1018.2 1015.2
14 20.02 З 7
{13}
40 км н/о +17.3 +11.1 67 +16 +16 тепло 1017.6 1014.6
15 20.02 З 7 50 км н/о +16.0 +10.7 71 +14 +14 тепло 1017.7 1014.7
16 20.02 З 7 45 км н/о +14.5 +10.6 77 +13 +13 тепло 1017.7 1014.7
17 20.02 З 8 45 км н/о +13.6 +10.3 80 +11 +11 тепло 1017.7 1014.7
18 20.02 З 7 45 км н/о +13.3 +10.4 83 +11 +11 тепло 1018.0 1015.0 +18.1
19 20.02 З 6 45 км н/о +13.1 +10.4 84 +11 +11 тепло 1017.9 1014.9
20 20.02 З 6 23 км н/о +12.4 +10.0 85 +10 +10 тепло 1018.4 1015.4
21 20.02 З 5 14 км н/о +12.1 +10.0 87 +10 +10 тепло 1018.6 1015.6
22 20.02 З 6 21 км н/о +11.6 +9.5 87 +9 +9 тепло 1018.5 1015.4
23 20.02 З 8 20 км н/о +11.5 +9.3 86 +8 +8 тепло 1018.1 1015.1
00 21.02 З 5 19 км н/о +10.6 +8.9 89 +8 +8 тепло 1018.3 1015.2
01 21.02 З 6 20 км н/о +10.4 +8.7 89 +7 +7 тепло 1018.1 1015.1
02 21.02 З 6 18 км н/о +10.4 +8.9 90 +7 +7 тепло 1018.2 1015.2
03 21.02 З 5 24 км н/о +10.7 +9.1 90 +8 +8 тепло 1018.1 1015.0
04 21.02 З 5 3100 м ливневой дождь н/о +10.1 +9.7 97 +7 +7 тепло 1017.9 1014.8
05 21.02 ЮЗ 4 4100 м слаб. морось н/о +9.9 +9.7 99 +7 +7 тепло 1017.4 1014.4
06 21.02 З 5 10 км слаб. морось н/о +9.8 +9.6 99 +7 +7 тепло 1017.4 1014.3 +9.8 1
07 21.02 З 5 11 км слаб. морось н/о +10.0 +9.7 98 +7 +7 тепло 1017.4 1014.3
08 21.02 З 5 29 км в посл. час дождь н/о +10.3 +9.7 96 +7 +7 тепло 1017.6 1014.5
09 21.02 З 4 22 км н/о +10.9 +9.9 94 +8 +8 тепло 1017.9 1014.8
10 21.02 З 5 25 км н/о +11.5 +10.1 91 +9 +9 тепло 1017.8 1014.8
11 21.02 З 6 35 км н/о +12.1 +10.1 88 +9 +9 тепло 1017.7 1014.7
12 21.02 З 7 50 км н/о +12.4 +10.2 86 +10 +10 тепло 1017.4 1014.4 0.2
13 21.02 З 6 50 км н/о +13.1 +10.3 83 +11 +11 тепло 1016.7 1013.6
14 21.02 З 6 50 км н/о +13.5 +10.4 82 +11 +11 тепло 1015.9 1012.9
15 21.02 З 8 50 км н/о +13.0 +10.0 82 +10 +10 тепло 1015.2 1012.1
16 21.02 З 8 45 км н/о +12.9 +10.0 83 +10 +10 тепло 1014.7 1011.7
17 21.02 З 7 50 км в посл. час дождь н/о +12.6 +10.0 84 +10 +10 тепло 1014.4 1011.3
18 21.02 З 7 50 км н/о +12.4 +9.5 82 +10 +10 тепло 1014.2 1011.1 +13.6 0.2

 

Местоположение метеостанции London (Великобритания): широта 51.48 долгота -0.45 высота над уровнем моря 25 м.

В архиве по умолчанию представлена погода в London за последнюю неделю. Архивные данные за месяц целиком и за предыдущие месяцы, начиная с января 2011 года, Вы можете получить, выбрав интересующий диапазон дат из раскрывающегося списка и нажав кнопку "Ввод!".

Внимание! Время в таблицах - всемирное. Для получения местного времени необходимо прибавить поправку, которая в London равна 0 ч.

Смотрите также архив погоды в соседних городах и на ближайших метеорологических станциях:

Погода в Northolt (Великобритания) (8 км)
Погода в London, St James Park (Великобритания) (23 км)
Погода в Charlwood (Великобритания) (28 км)
Погода в Farnborough (Великобритания) (31 км)
Погода в Kenley Airfield (Великобритания) (33 км)
Погода в High Wycombe Hqstc (Великобритания) (33 км)
Погода в Odiham (Великобритания) (44 км)
Погода в Benson (Великобритания) (46 км)
Погода в Gravesend-Broadness (Великобритания) (52 км)
Погода в Rothamsted (Великобритания) (66 км)

Пояснения к столбцам:

Ветер - указаны скорость ветра в м/с - средняя за 10 мин, порывы в срок и между сроками (в фигурных скобках) и направление, откуда дует ветер: С - северный, СВ - северо-восточный, В - восточный, ЮВ - юго-восточный, Ю - южный, ЮЗ - юго-западный, З - западный, СЗ - северо-западный.
Видимость - горизонтальная дальность видимости в метрах или километрах. При видимости от 1 до 10 км при отсутствии осадков обычно наблюдается дымка, при ухудшении видимости до 1 км и менее - туман. В сухую погоду видимость может ухудшаться дымом, пылью или мглою.
Явления - указаны атмосферные явления, наблюдавшиеся в срок или в последний час перед сроком; фигурными скобками обозначены явления, наблюдавшиеся между сроками (за 1-3 часа до срока); квадратными скобками обозначены град или гололедные отложения с указанием их диаметра в мм.
Облачность - указаны через наклонную черту общая и нижняя облачность в баллах и высота нижней границы облаков в метрах; квадратными скобками обозначены формы облаков: Ci - перистые, Cs - перисто-слоистые, Cc - перисто-кучевые, Ac - высококучевые, As - высокослоистые, Sc - слоисто-кучевые, Ns - слоисто-дождевые, Cu - кучевые, Cb - кучево-дождевые. Подробнее классификацию облаков см. в Атласе облаков (PDF).
T - Температура воздуха - температура, измеренная на высоте 2 м над землей.
Td - Температура точки росы - температура, при понижении до которой содержащийся в воздухе водяной пар достигнет насыщения.
f - Относительная влажность воздуха - влажноcть воздуха, измеренная на высоте 2 м над землей.
Te - Эффективная температура - температура, которую ощущает одетый по сезону человек в тени. Характеристика душности погоды. При расчете учитывается влияние влажности воздуха и скорости ветра на теплоощущения человека.
Tes - Эффективная температура на солнце - температура, которую ощущает человек, с поправкой на солнечный нагрев. Характеристика знойности погоды. Зависит от высоты солнца над горизонтом, облачности и скорости ветра. Ночью, в пасмурную погоду, а также при ветре 12 м/с и более поправка равна нулю.
P - Атмосферное давление - приведенное к уровню моря атмосферное давление.
Po - Атмосферное давление - измеренное на уровне метеостанции атмосферное давление.
Tmin - Минимальная температура - минимум температуры воздуха на высоте 2 м над землей.
Tmax - Максимальная температура - максимум температуры воздуха на высоте 2 м над землей.
R - Количество осадков - Количество выпавших осадков, мм. При наведении курсора мыши на число - период времени, за который выпало указанное количество осадков.
S - Снежный покров - Высота снежного покрова, см. При наведении курсора мыши на число - состояние снежного покрова и степень покрытия местности в баллах.